Погода в Бесленеевской

Россия / Краснодарский край     44°13′35″N   40°42′40″E
темп.,
°C
ветер,
м/с
пор.,
м/с
влажн.,
%
обл.,
%
осадки,
мм/ч
давл.,
гПа
погр.,
м
7 мая, пт
пт700:00+12ююз2291100 0.4 101322
03:00+11ююз229297 0.8 101321
06:00+9ююз11906 0.4 101620
09:00+15св21744 0.4 1016562
12:00+17ссв236428 0.8 10161016
15:00+17ссв237084 2.8 1017961
18:00+15ссв238435 1.4 1018222
21:00+11ююв119191 1.6 101911
8 мая, сб
сб800:00+10ю22955 0.0 101820
03:00+9ю229419 0.0 101726
06:00+9ююз228842 0.0 101740
09:00+16юв0162100 0.0 1015317
12:00+20ссв3252100 0.0 10131039
15:00+19с1159100 0.0 1013882
18:00+18св1175100 0.0 101221
21:00+13ююз229170 1.3 101231
9 мая, вс
вс900:00+11ю3389100 0.0 101144
03:00+11ю228080 0.0 101120
06:00+10ю1182100 0.0 101112
09:00+11ссз3589100 0.0 1012357
12:00+5з4996100 3.4 1019786
15:00+4зюз3996100 9.6 1021687
18:00+6зсз389366 0.7 1022786
21:00+3зюз249529 0.8 1025120
10 мая, пн
пн1000:00+3юз239250 0.0 102551
03:00+2ююз339221 0.0 102554
06:00+2юз349084 0.1 102593
09:00+9з485859 0.3 10221399
12:00+11зсз71051100 0.3 10202019
15:00+10зсз71059100 0.7 10201492
18:00+6зсз61184100 0.1 1021760
21:00+4юз258999 0.1 1021192
11 мая, вт
вт1100:00+2юз348499 0.0 102069
03:00+4ююз2377100 0.1 101888
06:00+4ю2587100 0.3 1018222
09:00+7ю1573100 0.3 1016377
12:00+7вюв2493100 1.7 1015183
15:00+8ююз2492100 3.0 1015184
18:00+7св1192100 0.1 101737
21:00+6св0098100 1.6 101824